• în Republica Moldova
  • Lista ţărilor
  • Pe 7 zile
  • Temperatura apei
  • Hartă satelitară
  • Meteo pe hartă
  • Widget-uri
  • user-avatar
    Intrare

    Meteo pe oră la Nachiczewan

    Astăzi, 27 Februarie, Luni

    Timp Temperatura Precipitaţii Vânt Presiune Umiditate
    00:00 -3°C° 0 mm 1 m/s 687 mmHg 86%
    01:00 -3°C° 0 mm 1 m/s 687 mmHg 86%
    02:00 -3°C° 0 mm 1 m/s 687 mmHg 86%
    03:00 -4°C° 0 mm 0 m/s 687 mmHg 86%
    04:00 -4°C° 0 mm 0 m/s 687 mmHg 86%
    05:00 -5°C° 0 mm 0 m/s 687 mmHg 86%
    06:00 -5°C° 0 mm 0 m/s 687 mmHg 86%
    07:00 -2°C° 0 mm 0 m/s 688 mmHg 87%
    08:00 +1°C° 0 mm 0 m/s 688 mmHg 87%
    09:00 +4°C° 0 mm 0 m/s 689 mmHg 87%
    10:00 +4°C° 0 mm 0 m/s 689 mmHg 87%
    11:00 +5°C° 0 mm 0 m/s 689 mmHg 87%
    12:00 +7°C° 0 mm 1 m/s 688 mmHg 87%
    13:00 +6°C° 0 mm 0 m/s 688 mmHg 88%
    14:00 +6°C° 0 mm 0 m/s 688 mmHg 89%
    15:00 +6°C° 0 mm 0 m/s 687 mmHg 90%
    16:00 +3°C° 0 mm 0 m/s 687 mmHg 90%
    17:00 +1°C° 0 mm 0 m/s 686 mmHg 91%
    18:00 -2°C° 0 mm 0 m/s 686 mmHg 91%
    19:00 -2°C° 0 mm 0 m/s 686 mmHg 90%
    20:00 -2°C° 0 mm 0 m/s 687 mmHg 88%
    21:00 -2°C° 0 mm 0 m/s 687 mmHg 87%
    22:00 -2°C° 0 mm 0 m/s 687 mmHg 86%
    23:00 -2°C° 0 mm 0 m/s 687 mmHg 84%

    Mâine, 28 Februarie, Marţi

    Timp Temperatura Precipitaţii Vânt Presiune Umiditate
    00:00 -2°C° 0 mm 0 m/s 687 mmHg 83%
    01:00 -2°C° 0 mm 0 m/s 687 mmHg 82%
    02:00 -2°C° 0 mm 0 m/s 687 mmHg 82%
    03:00 -2°C° 0 mm 0 m/s 687 mmHg 81%
    04:00 -2°C° 0 mm 0 m/s 687 mmHg 81%
    05:00 -2°C° 0 mm 0 m/s 687 mmHg 81%
    06:00 -2°C° 0 mm 0 m/s 687 mmHg 82%
    07:00 0°C° 0 mm 0 m/s 688 mmHg 80%
    08:00 +2°C° 0 mm 0 m/s 688 mmHg 79%
    09:00 +4°C° 0 mm 0 m/s 689 mmHg 78%
    10:00 +5°C° 0 mm 0 m/s 689 mmHg 78%
    11:00 +6°C° 0 mm 0 m/s 689 mmHg 78%
    12:00 +7°C° 0 mm 0 m/s 689 mmHg 78%
    13:00 +7°C° 0 mm 0 m/s 689 mmHg 80%
    14:00 +7°C° 0 mm 0 m/s 688 mmHg 81%
    15:00 +7°C° 0 mm 0 m/s 688 mmHg 83%
    16:00 +5°C° 0 mm 0 m/s 688 mmHg 84%
    17:00 +3°C° 0 mm 0 m/s 688 mmHg 86%
    18:00 +1°C° 0 mm 0 m/s 688 mmHg 88%
    19:00 0°C° 0 mm 0 m/s 688 mmHg 87%
    20:00 0°C° 0 mm 0 m/s 688 mmHg 87%
    21:00 0°C° 0 mm 0 m/s 689 mmHg 86%
    22:00 0°C° 0 mm 0 m/s 689 mmHg 85%
    23:00 0°C° 0 mm 0 m/s 689 mmHg 84%

    Poimâine, 1 Martie, Miercuri

    Timp Temperatura Precipitaţii Vânt Presiune Umiditate
    00:00 0°C° 0 mm 0 m/s 689 mmHg 83%
    01:00 0°C° 0 mm 0 m/s 689 mmHg 83%
    02:00 0°C° 0 mm 0 m/s 689 mmHg 82%
    03:00 0°C° 0 mm 0 m/s 689 mmHg 82%
    04:00 -1°C° 0 mm 0 m/s 689 mmHg 81%
    05:00 -1°C° 0 mm 0 m/s 689 mmHg 81%
    06:00 -1°C° 0 mm 0 m/s 689 mmHg 81%
    07:00 +1°C° 0 mm 0 m/s 690 mmHg 79%
    08:00 +3°C° 0 mm 0 m/s 690 mmHg 76%
    09:00 +5°C° 0 mm 0 m/s 691 mmHg 73%
    10:00 +6°C° 0 mm 0 m/s 691 mmHg 74%
    11:00 +7°C° 0 mm 0 m/s 690 mmHg 74%
    12:00 +9°C° 0 mm 1 m/s 690 mmHg 74%
    13:00 +8°C° 0 mm 0 m/s 690 mmHg 76%
    14:00 +8°C° 0 mm 0 m/s 689 mmHg 78%
    15:00 +8°C° 0 mm 0 m/s 689 mmHg 80%
    16:00 +6°C° 0 mm 0 m/s 688 mmHg 82%
    17:00 +4°C° 0 mm 0 m/s 688 mmHg 85%
    18:00 +2°C° 0 mm 0 m/s 687 mmHg 87%
    19:00 +2°C° 0 mm 0 m/s 688 mmHg 87%
    20:00 +2°C° 0 mm 0 m/s 688 mmHg 86%
    21:00 +3°C° 0 mm 1 m/s 688 mmHg 85%
    22:00 +3°C° 0 mm 1 m/s 688 mmHg 84%
    23:00 +3°C° 0 mm 1 m/s 688 mmHg 82%

    2 Martie, Joi

    Timp Temperatura Precipitaţii Vânt Presiune Umiditate
    00:00 +2°C° 0 mm 1 m/s 687 mmHg 81%
    01:00 +2°C° 0 mm 1 m/s 687 mmHg 80%
    02:00 +2°C° 0 mm 1 m/s 687 mmHg 79%
    03:00 +2°C° 0 mm 1 m/s 687 mmHg 77%
    04:00 +2°C° 0 mm 1 m/s 687 mmHg 77%
    05:00 +2°C° 0 mm 1 m/s 687 mmHg 77%
    06:00 +2°C° 0 mm 1 m/s 687 mmHg 77%
    07:00 +4°C° 0 mm 1 m/s 687 mmHg 74%
    08:00 +6°C° 0 mm 1 m/s 687 mmHg 71%
    09:00 +7°C° 0 mm 1 m/s 687 mmHg 68%
    10:00 +8°C° 0 mm 1 m/s 687 mmHg 69%
    11:00 +8°C° 0 mm 0 m/s 686 mmHg 69%
    12:00 +9°C° 0 mm 0 m/s 686 mmHg 70%
    13:00 +9°C° 0 mm 0 m/s 685 mmHg 72%
    14:00 +10°C° 0 mm 1 m/s 685 mmHg 74%
    15:00 +10°C° 0 mm 1 m/s 685 mmHg 76%
    16:00 +9°C° 0 mm 1 m/s 684 mmHg 77%
    17:00 +7°C° 0 mm 1 m/s 684 mmHg 79%
    18:00 +6°C° 0 mm 1 m/s 684 mmHg 81%
    19:00 +6°C° 0,1 mm 1 m/s 684 mmHg 81%
    20:00 +6°C° 0,1 mm 1 m/s 685 mmHg 80%
    21:00 +5°C° 0,1 mm 0 m/s 685 mmHg 80%
    22:00 +4°C° 0,1 mm 0 m/s 685 mmHg 81%
    23:00 +4°C° 0,1 mm 0 m/s 684 mmHg 81%

    3 Martie, Vineri

    Timp Temperatura Precipitaţii Vânt Presiune Umiditate
    00:00 +4°C° 0,1 mm 0 m/s 684 mmHg 82%
    01:00 +4°C° 0 mm 0 m/s 684 mmHg 83%
    02:00 +3°C° 0 mm 0 m/s 684 mmHg 84%
    03:00 +3°C° 0 mm 0 m/s 683 mmHg 85%
    04:00 +3°C° 0 mm 0 m/s 683 mmHg 86%
    05:00 +3°C° 0 mm 0 m/s 684 mmHg 86%
    06:00 +3°C° 0 mm 0 m/s 684 mmHg 86%
    07:00 +4°C° 0 mm 0 m/s 684 mmHg 83%
    08:00 +5°C° 0 mm 0 m/s 684 mmHg 79%
    09:00 +7°C° 0 mm 0 m/s 685 mmHg 76%
    10:00 +8°C° 0 mm 0 m/s 684 mmHg 75%
    11:00 +8°C° 0 mm 0 m/s 684 mmHg 74%
    12:00 +9°C° 0 mm 0 m/s 684 mmHg 74%
    13:00 +9°C° 0,1 mm 0 m/s 684 mmHg 74%
    14:00 +9°C° 0,1 mm 0 m/s 684 mmHg 75%
    15:00 +9°C° 0,1 mm 0 m/s 684 mmHg 75%
    16:00 +8°C° 0 mm 0 m/s 684 mmHg 79%
    17:00 +7°C° 0 mm 0 m/s 684 mmHg 82%
    18:00 +5°C° 0 mm 0 m/s 684 mmHg 86%
    19:00 +5°C° 0 mm 0 m/s 684 mmHg 87%
    20:00 +5°C° 0 mm 0 m/s 684 mmHg 87%
    21:00 +4°C° 0 mm 0 m/s 684 mmHg 88%
    22:00 +4°C° 0 mm 0 m/s 684 mmHg 89%
    23:00 +4°C° 0 mm 0 m/s 684 mmHg 89%

    4 Martie, Sâmbătă

    Timp Temperatura Precipitaţii Vânt Presiune Umiditate
    00:00 +3°C° 0 mm 0 m/s 684 mmHg 90%
    01:00 +3°C° 0 mm 0 m/s 684 mmHg 90%
    02:00 +3°C° 0 mm 0 m/s 684 mmHg 90%
    03:00 +3°C° 0 mm 0 m/s 684 mmHg 90%
    04:00 +3°C° 0 mm 0 m/s 684 mmHg 90%
    05:00 +3°C° 0 mm 0 m/s 684 mmHg 90%
    06:00 +2°C° 0 mm 0 m/s 684 mmHg 90%
    07:00 +4°C° 0 mm 0 m/s 684 mmHg 86%
    08:00 +6°C° 0 mm 0 m/s 685 mmHg 81%
    09:00 +7°C° 0 mm 0 m/s 685 mmHg 77%
    10:00 +8°C° 0 mm 0 m/s 685 mmHg 74%
    11:00 +10°C° 0 mm 1 m/s 685 mmHg 72%
    12:00 +11°C° 0 mm 1 m/s 685 mmHg 69%
    13:00 +11°C° 0,1 mm 1 m/s 684 mmHg 69%
    14:00 +11°C° 0,1 mm 1 m/s 684 mmHg 69%
    15:00 +11°C° 0,1 mm 1 m/s 684 mmHg 69%
    16:00 +10°C° 0,1 mm 1 m/s 684 mmHg 74%
    17:00 +9°C° 0,1 mm 1 m/s 684 mmHg 80%
    18:00 +7°C° 0,1 mm 1 m/s 684 mmHg 85%
    19:00 +7°C° 0,1 mm 1 m/s 684 mmHg 86%
    20:00 +6°C° 0,1 mm 1 m/s 684 mmHg 86%
    21:00 +6°C° 0,1 mm 1 m/s 685 mmHg 87%
    22:00 +6°C° 0,2 mm 1 m/s 685 mmHg 88%
    23:00 +6°C° 0,2 mm 1 m/s 685 mmHg 88%
    Arată mai mult